Jackson, TN

11:05 AM CST on December 10, 2016 (GMT -0600)
McKellar-Sipes Regional

Weather History for KMKL - December, 2012

Change the Weather History Date:

Friday, December 7, 2012

  Actual Average Record
Temperature  
Mean Temperature 60 °F 43 °F  
Max Temperature 63 °F 53 °F 72 °F (1966)
Min Temperature 56 °F 33 °F 10 °F (1950)
Degree Days  
Heating Degree Days 5 22  
Month to date heating degree days 34 151  
Since 1 July heating degree days 841 818  
Cooling Degree Days 0 0  
Month to date cooling degree days 3 0  
Year to date cooling degree days 1934 1697  
Growing Degree Days 9 (Base 50)    
Moisture  
Dew Point 57 °F    
Average Humidity 90    
Maximum Humidity 100    
Minimum Humidity 80    
Precipitation  
Precipitation 0.08 in 0.19 in 2.10 in (1978)
Month to date precipitation 0.26 1.28  
Year to date precipitation 37.89 49.20  
Snow  
Snow 0.00 in - - ()
Month to date snowfall 0.0  
Snow Depth 0.00 in    
Sea Level Pressure  
Sea Level Pressure 29.92 in    
Wind  
Wind Speed 7 mph (South)    
Max Wind Speed 14 mph    
Max Gust Speed 18 mph    
Visibility 9 miles    
Events Rain    
T = Trace of Precipitation, MM = Missing Value Source: NWS Daily Summary

Daily Weather History Graph

Daily Weather History Graph

Search for Another Location

Airport or City:

Trip Planner

Search our weather history database for the weather conditions in past years. The results will help you decide how hot, cold, wet, or windy it might be!

Date:

Astronomy

Dec. 07, 2012 Rise Set
Actual Time 6:52 AM CST 4:42 PM CST
Civil Twilight 6:24 AM CST 5:10 PM CST
Nautical Twilight 5:52 AM CST 5:42 PM CST
Astronomical Twilight 5:21 AM CST 6:13 PM CST
Moon 12:22 AM CST (12/7) 12:29 PM CST (12/7)
Length of Visible Light 10h 46m
Length of Day
9h 50m
Last Quarter, 38% of the Moon is Illuminated
Dec 7
Last Quarter
Dec 13
New
Dec 19
First Quarter
Dec 28
Full
Jan 4
Last Quarter

Hourly Weather History & Observations

Time (CST) Temp. Dew Point Humidity Pressure Visibility Wind Dir Wind Speed Gust Speed Precip Events Conditions
12:19 AM 55.4 °F 55.4 °F 100% 29.95 in 3.0 mi Calm Calm - N/A   Overcast
12:53 AM 57.0 °F 55.9 °F 96% 29.94 in 4.0 mi Calm Calm - N/A   Overcast
1:53 AM 59.0 °F 55.9 °F 90% 29.94 in 10.0 mi South 4.6 mph - N/A   Overcast
2:53 AM 59.0 °F 55.0 °F 87% 29.93 in 10.0 mi South 11.5 mph 17.3 mph N/A   Mostly Cloudy
3:53 AM 59.0 °F 54.0 °F 83% 29.92 in 10.0 mi South 8.1 mph - N/A   Overcast
4:53 AM 57.9 °F 54.0 °F 87% 29.93 in 10.0 mi South 8.1 mph - N/A   Scattered Clouds
5:53 AM 57.9 °F 54.0 °F 87% 29.94 in 10.0 mi South 5.8 mph - N/A   Overcast
6:53 AM 57.9 °F 54.0 °F 87% 29.94 in 10.0 mi South 11.5 mph - N/A   Mostly Cloudy
7:53 AM 59.0 °F 55.0 °F 87% 29.94 in 10.0 mi South 10.4 mph - N/A   Mostly Cloudy
8:53 AM 57.9 °F 55.9 °F 93% 29.96 in 10.0 mi South 8.1 mph - 0.00 in   Overcast
9:04 AM 57.2 °F 55.4 °F 94% 29.96 in 7.0 mi South 6.9 mph - 0.00 in Rain Light Rain
9:21 AM 57.2 °F 55.4 °F 94% 29.96 in 3.0 mi SSW 6.9 mph - 0.06 in Rain Rain
9:27 AM 57.2 °F 55.4 °F 94% 29.96 in 2.5 mi South 6.9 mph - 0.07 in Rain Rain
9:36 AM 57.2 °F 57.2 °F 100% 29.96 in 7.0 mi SSW 6.9 mph - 0.08 in Rain Light Rain
9:53 AM 59.0 °F 57.0 °F 93% 29.96 in 8.0 mi South 8.1 mph - 0.08 in Rain Light Rain
10:53 AM 59.0 °F 57.0 °F 93% 29.94 in 10.0 mi South 8.1 mph - 0.00 in   Overcast
11:44 AM 60.8 °F 57.2 °F 88% 29.92 in 10.0 mi SSW 4.6 mph - N/A   Overcast
11:53 AM 61.0 °F 59.0 °F 93% 29.92 in 10.0 mi SSW 4.6 mph - N/A   Overcast
12:53 PM 61.0 °F 59.0 °F 93% 29.89 in 10.0 mi SSW 5.8 mph - N/A   Overcast
1:53 PM 62.1 °F 59.0 °F 90% 29.87 in 10.0 mi South 6.9 mph - 0.00 in   Overcast
2:12 PM 62.6 °F 59.0 °F 88% 29.87 in 10.0 mi SSW 8.1 mph - N/A   Mostly Cloudy
2:38 PM 62.6 °F 59.0 °F 88% 29.87 in 10.0 mi SSW 6.9 mph - N/A   Overcast
2:53 PM 63.0 °F 57.9 °F 84% 29.87 in 10.0 mi South 6.9 mph - N/A   Overcast
3:53 PM 63.0 °F 57.9 °F 84% 29.86 in 10.0 mi South 5.8 mph - N/A   Mostly Cloudy
4:02 PM 62.6 °F 57.2 °F 82% 29.87 in 10.0 mi Calm Calm - N/A   Scattered Clouds
4:53 PM 60.1 °F 57.0 °F 90% 29.87 in 10.0 mi Calm Calm - N/A   Scattered Clouds
5:53 PM 59.0 °F 55.9 °F 90% 29.88 in 10.0 mi SSE 4.6 mph - N/A   Clear
7:53 PM 59.0 °F 57.0 °F 93% 29.91 in 10.0 mi SSE 3.5 mph - N/A   Mostly Cloudy
8:53 PM 59.0 °F 57.9 °F 96% 29.91 in 9.0 mi South 5.8 mph - N/A   Mostly Cloudy
9:13 PM 60.8 °F 57.2 °F 88% 29.91 in 9.0 mi South 4.6 mph - N/A   Overcast
9:29 PM 60.8 °F 57.2 °F 88% 29.91 in 10.0 mi South 6.9 mph - N/A   Overcast
10:23 PM 60.8 °F 57.2 °F 88% 29.92 in 10.0 mi SSW 9.2 mph - N/A   Overcast
10:41 PM 59.0 °F 57.2 °F 94% 29.92 in 9.0 mi SSW 8.1 mph - N/A   Scattered Clouds
10:53 PM 59.0 °F 57.0 °F 93% 29.91 in 9.0 mi South 8.1 mph - N/A   Partly Cloudy
11:53 PM 60.1 °F 57.9 °F 93% 29.88 in 10.0 mi South 8.1 mph - N/A   Overcast